www.pogodaiklimat.ru

Погода и климат >> Архив погоды >> Канада >> Spence bay


ПОГОДА в Spence bay

  • Прогноз погоды в Spence bay
  • Монитор погоды в Spence bay
  • Климат города

АРХИВ ПОГОДЫ в Spence bay

Время (UTC), дата Ветер
(напр.,м/с)
 
Видим.   Явления Облачность Т
(С)
Тd
(С)
f
(%)
Тe
(С)
Тes
(С)
Комфортность P
(гПа)
Po
(гПа)
Тmin
(С)
Tmax
(С)
R
(мм)
S
(см)
15 14.02 СВ 4 24 км ясно -39.8 -44.4 61 -53 -53 опасность
обморожения
1027.8 1023.8
18 14.02 СВ 4 24 км ледяные иглы {снег} ясно -38.6 -43.1 62 -52 -52 опасность
обморожения
1027.2 1023.2 -40.9 -35.9 0.0 18
21 14.02 СВ 4 24 км ясно -37.4 -41.9 63 -51 -50 опасность
обморожения
1026.9 1022.9
00 15.02 СВ 5 24 км ледяные иглы {снег} ясно -38.2 -42.7 62 -53 -53 опасность
обморожения
1026.7 1022.7 -40.9 -35.6 0.0 18
03 15.02 С 4 24 км ясно -38.8 -43.2 63 -51 -51 опасность
обморожения
1025.8 1021.8
06 15.02 СВ 4 24 км ледяные иглы {снег} ясно -36.4 -40.8 64 -49 -49 опасность
обморожения
1024.5 1020.5 -40.9 -35.6 0.0 18
09 15.02 В 4 24 км ясно -35.0 -39.3 65 -47 -47 опасность
обморожения
1024.0 1020.0
12 15.02 В 5 24 км ледяные иглы {снег} ясно -35.5 -39.8 65 -50 -50 опасность
обморожения
1023.3 1019.3 -39.1 -35.6 0.0 18
15 15.02 СВ 5 24 км ясно -35.5 -39.8 65 -50 -50 опасность
обморожения
1020.9 1016.9
18 15.02 СВ 5 19 км ледяные иглы {снег} 4/1 1000 м
[Sc Ac trans Ci fib]
-34.5 -38.8 65 -48 -48 опасность
обморожения
1019.4 1015.5 -40.0 -33.8 0.0 18
21 15.02 ЮВ 2 24 км 9/9 1000 м
[]
-28.1 -32.0 69 -34 -34 опасность
обморожения
1017.5 1013.6
00 16.02 ЮВ 10 16 км ледяные иглы {снег} 9/4 1000 м
[Sc Ac trans Cc]
-24.4 -28.0 72 -40 -40 опасность
обморожения
1014.3 1010.4 -37.5 -24.4 0.0 18
03 16.02 ЮВ 11 2400 м ясно -23.8 -27.2 73 -39 -39 опасность
обморожения
1012.4 1008.5
06 16.02 ЮВ 13 2000 м метель {снег} 1/1 600 м
[Sc]
-23.1 -26.4 74 -39 -39 опасность
обморожения
1009.0 1005.2 -37.5 -23.0 0.0 62
09 16.02 ЮВ 15 600 м 3/3 300 м
[]
-21.5 -24.5 77 -38 -38 опасность
обморожения
1006.8 1003.1
12 16.02 600 м сильная метель {снег} н/о -21.2 -24.2 77 -37 -37 опасность
обморожения
1004.9 1001.2 -24.4 -23.0 0.0 18
15 16.02 ЮВ 13 800 м 5/5 600 м
[]
-21.0 -24.0 77 -37 -37 опасность
обморожения
1003.6 999.9
18 16.02 600 м слабый снег н/о -19.1 -21.9 78 -33 -33 опасность
обморожения
1003.1 999.4 -34.2 -19.1 2 20
21 16.02 Ю 13 600 м 5/5 600 м
[]
-18.6 -21.4 79 -33 -33 опасность
обморожения
1002.8 999.1
00 17.02 600 м слабый снег н/о -18.6 -21.2 80 -33 -33 опасность
обморожения
1002.8 999.1 -23.4 -18.4 2 21
03 17.02 Ю 12 1200 м 6/6 300 м
[]
-18.1 -20.8 79 -32 -32 опасность
обморожения
1003.0 999.3
06 17.02 1600 м метель {снег} н/о -17.4 -19.9 81 -30 -30 1004.0 1000.3 -23.4 -17.4 0.8 132
09 17.02 Ю 9 4000 м 9/9 600 м
[]
-16.8 -19.3 81 -29 -29 1005.3 1001.6
12 17.02 Ю 8 12 км позёмок {снег} 10/10 300 м
[St]
-16.5 -18.9 82 -28 -28 1006.5 1002.8 -18.6 -17.4 0.4 22
15 17.02 ЮЗ 7 2000 м 9/9 300 м
[]
-16.3 -18.7 82 -27 -27 1008.0 1004.3
18 17.02 ЮЗ 6 4800 м слабый снег 8/8 300 м
[Frnb]
-16.3 -18.7 82 -26 -26 1009.5 1005.8 -19.1 -16.3 0.0 22
21 17.02 ЮЗ 6 3200 м 9/9 300 м
[]
-16.6 -19.1 81 -26 -26 1011.0 1007.3
00 18.02 ЮЗ 4 9000 м слабый снег 10/10 300 м
[Frnb]
-16.6 -19.0 82 -25 -25 1012.2 1008.5 -17.4 -16.3 0.2 22
03 18.02 Ю 6 9000 м 10/10 300 м
[]
-17.4 -19.9 81 -27 -27 1012.4 1008.7
06 18.02 Ю 4 24 км слабый снег 5/4 300 м
[Sc]
-19.4 -22.2 78 -28 -28 1013.3 1009.6 -19.4 -16.3 0.0 71
09 18.02 Ю 4 24 км 3/3 300 м
[]
-18.8 -21.7 78 -28 -28 1013.5 1009.8
12 18.02 ЮВ 3 24 км слабый снег 8/6 300 м
[Sc]
-16.4 -19.5 77 -23 -23 1013.5 1009.8 -19.6 -16.3 0.0 22
15 18.02 Ю 6 11 км 10/10 1000 м
[]
-17.1 -20.2 77 -27 -27 1013.2 1009.5
18 18.02 4800 м слабый снег н/о -16.7 -19.2 81 -26 -26 1012.2 1008.5 -19.6 -16.1 0.6 23
21 18.02 Ю 7 2400 м 8/8 300 м
[]
-16.0 -18.6 80 -26 -26 1011.7 1008.0
00 19.02 ЮЗ 5 19 км слабый снег {ливн. осадки} 8/8 600 м
[Sc]
-16.6 -19.3 80 -25 -25 1011.6 1007.9 -19.6 -16.0 1 24
03 19.02 З 3 24 км 1/1 1500 м
[]
-19.9 -22.5 80 -27 -27 1011.4 1007.7
06 19.02 ЮВ 1 24 км ледяные иглы {снег} ясно -22.6 -25.3 79 -26 -26 1012.0 1008.3 -23.0 -16.0 0.0 200
09 19.02 Ю 2 11 км 5/5 50 м
[]
-27.4 -30.9 72 -35 -35 опасность
обморожения
1013.3 1009.6
12 19.02 СЗ 7 24 км ледяные иглы {снег} 1/1 600 м
[Sc]
-24.5 -27.7 75 -37 -37 опасность
обморожения
1014.4 1010.7 -27.4 -16.0 0.0 24
15 19.02 СЗ 6 24 км 3/3 1000 м
[]
-25.8 -29.2 73 -38 -38 опасность
обморожения
1016.0 1012.3
18 19.02 СЗ 6 24 км ледяные иглы {снег} ясно -25.0 -28.4 73 -37 -37 опасность
обморожения
1017.9 1014.2 -27.4 -22.3 0.0 24
21 19.02 С 5 24 км ясно -26.4 -29.9 72 -38 -37 опасность
обморожения
1020.7 1016.8
00 20.02 Ю 2 24 км {снег} ясно -31.7 -35.8 67 -38 -38 опасность
обморожения
1023.0 1019.1 -31.7 -23.9 0.0 24
03 20.02 Ю 3 24 км ясно -35.0 -39.1 66 -46 -46 опасность
обморожения
1024.7 1020.8
06 20.02 Ю 4 24 км ледяные иглы {снег} ясно -35.9 -40.0 66 -48 -48 опасность
обморожения
1026.0 1022.1 -36.0 -22.3 0.0 150
09 20.02 Ю 3 24 км ясно -37.5 -41.7 65 -49 -49 опасность
обморожения
1027.4 1023.5
12 20.02 Ю 3 22 км ледяные иглы {снег} ясно -37.9 -42.2 64 -48 -48 опасность
обморожения
1028.2 1024.2 -38.3 -22.3 0.0 24
15 20.02 Ю 3 24 км ясно -38.5 -42.8 64 -50 -50 опасность
обморожения
1029.4 1025.4
18 20.02 Ю 4 24 км ледяные иглы {снег} ясно -36.5 -40.7 65 -49 -48 опасность
обморожения
1029.9 1025.9 -38.9 -36.0 0.0 24
21 20.02 Ю 5 24 км ясно -37.1 -41.5 63 -51 -51 опасность
обморожения
1031.2 1027.2
00 21.02 ЮВ 3 24 км ледяные иглы {снег} ясно -38.7 -43.0 64 -50 -50 опасность
обморожения
1032.1 1028.1 -38.9 -36.5 0.0 24
03 21.02 Ю 3 24 км ясно -38.2 -42.5 64 -50 -50 опасность
обморожения
1032.7 1028.7
06 21.02 С 2 24 км ледяные иглы {снег} ясно -40.5 -45.0 62 -48 -48 опасность
обморожения
1032.0 1028.0 -40.7 -36.0 0.0 24
09 21.02 Ю 1 24 км ясно -37.4 -41.7 64 -42 -42 опасность
обморожения
1032.2 1028.2

 

Местоположение метеостанции Spence bay (Канада): широта 69.55 долгота -93.58 высота над уровнем моря 28 м.

В архиве по умолчанию представлена погода в Spence bay за последнюю неделю. Архивные данные за месяц целиком и за предыдущие месяцы, начиная с января 2011 года, Вы можете получить, выбрав интересующий диапазон дат из раскрывающегося списка и нажав кнопку "Ввод!".

Внимание! Время в таблицах - всемирное. Для получения местного времени необходимо прибавить поправку, которая в Spence bay равна -6 ч.

Смотрите также архив погоды в соседних городах и на ближайших метеорологических станциях:

Погода в Shepherd Bay (Канада) (81 км)
Погода в Gjoa Haven Climate (Канада) (136 км)
Погода в Kugaaruk climate (Канада) (188 км)
Погода в Pelly Bay (Канада) (198 км)
Погода в Hat Island (Канада) (291 км)
Погода в Back River MAPS (Канада) (405 км)
Погода в Wager Bay (Канада) (444 км)
Погода в Cambridge Bay Gsn (Канада) (454 км)
Погода в Cambridge Bay Arpt (Канада) (454 км)
Погода в Ellice River AWS (Канада) (486 км)

Пояснения к столбцам:

Ветер - указаны скорость ветра в м/с - средняя за 10 мин, порывы в срок и между сроками (в фигурных скобках) и направление, откуда дует ветер: С - северный, СВ - северо-восточный, В - восточный, ЮВ - юго-восточный, Ю - южный, ЮЗ - юго-западный, З - западный, СЗ - северо-западный.
Видимость - горизонтальная дальность видимости в метрах или километрах. При видимости от 1 до 10 км при отсутствии осадков обычно наблюдается дымка, при ухудшении видимости до 1 км и менее - туман. В сухую погоду видимость может ухудшаться дымом, пылью или мглою.
Явления - указаны атмосферные явления, наблюдавшиеся в срок или в последний час перед сроком; фигурными скобками обозначены явления, наблюдавшиеся между сроками (за 1-3 часа до срока); квадратными скобками обозначены град или гололедные отложения с указанием их диаметра в мм.
Облачность - указаны через наклонную черту общая и нижняя облачность в баллах и высота нижней границы облаков в метрах; квадратными скобками обозначены формы облаков: Ci - перистые, Cs - перисто-слоистые, Cc - перисто-кучевые, Ac - высококучевые, As - высокослоистые, Sc - слоисто-кучевые, Ns - слоисто-дождевые, Cu - кучевые, Cb - кучево-дождевые. Подробнее классификацию облаков см. в Атласе облаков (PDF).
T - Температура воздуха - температура, измеренная на высоте 2 м над землей.
Td - Температура точки росы - температура, при понижении до которой содержащийся в воздухе водяной пар достигнет насыщения.
f - Относительная влажность воздуха - влажноcть воздуха, измеренная на высоте 2 м над землей.
Te - Эффективная температура - температура, которую ощущает одетый по сезону человек в тени. Характеристика душности погоды. При расчете учитывается влияние влажности воздуха и скорости ветра на теплоощущения человека.
Tes - Эффективная температура на солнце - температура, которую ощущает человек, с поправкой на солнечный нагрев. Характеристика знойности погоды. Зависит от высоты солнца над горизонтом, облачности и скорости ветра. Ночью, в пасмурную погоду, а также при ветре 12 м/с и более поправка равна нулю.
P - Атмосферное давление - приведенное к уровню моря атмосферное давление.
Po - Атмосферное давление - измеренное на уровне метеостанции атмосферное давление.
Tmin - Минимальная температура - минимум температуры воздуха на высоте 2 м над землей.
Tmax - Максимальная температура - максимум температуры воздуха на высоте 2 м над землей.
R - Количество осадков - Количество выпавших осадков, мм. При наведении курсора мыши на число - период времени, за который выпало указанное количество осадков.
S - Снежный покров - Высота снежного покрова, см. При наведении курсора мыши на число - состояние снежного покрова и степень покрытия местности в баллах.